Weather History for Longville, MN

Change the Weather History Date:

Sunday, September 2, 2012

  Actual Average (KPWC) Record (KPWC)
Temperature  
Mean Temperature 68 °F -  
Max Temperature 78 °F 73 °F 89 °F (2004)
Min Temperature 59 °F 49 °F 37 °F (1998)
Cooling Degree Days 4    
Growing Degree Days 18 (Base 50)    
Moisture  
Dew Point 59 °F    
Average Humidity 72    
Maximum Humidity 100    
Minimum Humidity 47    
Precipitation  
Precipitation 0.00 in - - ()
Sea Level Pressure  
Sea Level Pressure 29.90 in    
Wind  
Wind Speed 7 mph (SSE)    
Max Wind Speed 17 mph    
Max Gust Speed 24 mph    
Visibility 10 miles    
Events      
Averages and records for this station are not official NWS values.
T = Trace of Precipitation, MM = Missing Value Source: NWS Daily Summary

Daily Weather History Graph

Daily Weather History Graph

Search for Another Location

Airport:

Trip Planner

Search our weather history database for the weather conditions in past years. The results will help you decide how hot, cold, wet, or windy it might be!

Date:

Astronomy

Sep. 02, 2012 Rise Set
Actual Time 6:38 AM CDT 7:53 PM CDT
Civil Twilight 6:06 AM CDT 8:24 PM CDT
Nautical Twilight 5:28 AM CDT 9:02 PM CDT
Astronomical Twilight 4:48 AM CDT 9:42 PM CDT
Moon 8:26 PM CDT (9/2) 9:00 AM CDT (9/2)
Length of Visible Light 14h 18m
Length of Day
13h 15m
Waning Gibbous, 95% of the Moon is Illuminated
Sep 2
Waning Gibbous
Sep 8
Last Quarter
Sep 15
New
Sep 22
First Quarter
Sep 29
Full

Hourly Weather History & Observations

Time (CDT) Temp. Dew Point Humidity Pressure Visibility Wind Dir Wind Speed Gust Speed Precip Events Conditions
12:00 AM 62.6 °F 53.6 °F 72% 30.02 in 10.0 mi ESE 3.5 mph - N/A   Clear
12:16 AM 60.8 °F 53.6 °F 77% 30.02 in 10.0 mi SE 4.6 mph - N/A   Clear
12:20 AM 60.8 °F 53.6 °F 77% 30.02 in 10.0 mi SE 3.5 mph - N/A   Clear
12:36 AM 60.8 °F 53.6 °F 77% 30.01 in 10.0 mi SE 4.6 mph - N/A   Clear
12:40 AM 60.8 °F 53.6 °F 77% 30.01 in 10.0 mi SE 6.9 mph - N/A   Clear
12:56 AM 59.0 °F 53.6 °F 82% 30.01 in 10.0 mi SE 4.6 mph - N/A   Clear
1:00 AM 59.0 °F 53.6 °F 82% 30.01 in 10.0 mi SE 4.6 mph - N/A   Clear
1:16 AM 60.8 °F 53.6 °F 77% 30.01 in 10.0 mi SE 5.8 mph - N/A   Clear
1:20 AM 60.8 °F 53.6 °F 77% 30.01 in 10.0 mi SE 3.5 mph - N/A   Clear
1:36 AM 60.8 °F 53.6 °F 77% 30.00 in 10.0 mi SE 4.6 mph - N/A   Clear
1:40 AM 60.8 °F 53.6 °F 77% 30.00 in 10.0 mi SE 4.6 mph - N/A   Clear
1:56 AM 60.8 °F 53.6 °F 77% 30.00 in 10.0 mi SE 6.9 mph - N/A   Clear
2:00 AM 60.8 °F 53.6 °F 77% 30.00 in 10.0 mi SE 4.6 mph - N/A   Clear
2:16 AM 60.8 °F 55.4 °F 82% 30.00 in 10.0 mi ESE 5.8 mph - N/A   Clear
2:19 AM 60.8 °F 55.4 °F 82% 29.99 in 10.0 mi ESE 4.6 mph - N/A   Clear
2:36 AM 60.8 °F 55.4 °F 82% 29.98 in 10.0 mi ESE 4.6 mph - N/A   Clear
2:40 AM 60.8 °F 55.4 °F 82% 29.98 in 10.0 mi SE 5.8 mph - N/A   Clear
2:56 AM 60.8 °F 55.4 °F 82% 29.99 in 10.0 mi SE 5.8 mph - N/A   Clear
3:00 AM 60.8 °F 55.4 °F 82% 29.98 in 10.0 mi ESE 4.6 mph - N/A   Clear
3:16 AM 60.8 °F 55.4 °F 82% 29.98 in 10.0 mi SE 3.5 mph - N/A   Clear
3:20 AM 60.8 °F 55.4 °F 82% 29.97 in 10.0 mi SE 3.5 mph - N/A   Clear
3:36 AM 59.0 °F 55.4 °F 88% 29.97 in 10.0 mi SE 5.8 mph - N/A   Clear
3:40 AM 59.0 °F 55.4 °F 88% 29.97 in 10.0 mi SE 5.8 mph - N/A   Clear
3:56 AM 59.0 °F 55.4 °F 88% 29.97 in 10.0 mi SE 5.8 mph - N/A   Clear
4:00 AM 59.0 °F 55.4 °F 88% 29.97 in 10.0 mi SE 5.8 mph - N/A   Clear
4:16 AM 59.0 °F 55.4 °F 88% 29.97 in 10.0 mi SE 6.9 mph - N/A   Clear
4:20 AM 59.0 °F 55.4 °F 88% 29.97 in 10.0 mi SE 5.8 mph - N/A   Clear
4:36 AM 59.0 °F 55.4 °F 88% 29.97 in 10.0 mi SE 5.8 mph - N/A   Clear
4:40 AM 59.0 °F 55.4 °F 88% 29.97 in 10.0 mi SE 5.8 mph - N/A   Clear
4:56 AM 60.8 °F 55.4 °F 82% 29.97 in 10.0 mi SE 5.8 mph - N/A   Clear
5:00 AM 60.8 °F 55.4 °F 82% 29.97 in 10.0 mi SE 4.6 mph - N/A   Clear
5:16 AM 60.8 °F 53.6 °F 77% 29.97 in 10.0 mi SE 3.5 mph - N/A   Clear
5:20 AM 60.8 °F 55.4 °F 82% 29.97 in 10.0 mi SE 3.5 mph - N/A   Clear
5:36 AM 59.0 °F 53.6 °F 82% 29.98 in 10.0 mi SSE 4.6 mph - N/A   Clear
5:40 AM 60.8 °F 53.6 °F 77% 29.98 in 10.0 mi South 5.8 mph - N/A   Clear
5:56 AM 60.8 °F 53.6 °F 77% 29.97 in 10.0 mi SE 6.9 mph - N/A   Clear
6:00 AM 60.8 °F 53.6 °F 77% 29.97 in 10.0 mi SE 8.1 mph - N/A   Clear
6:16 AM 62.6 °F 53.6 °F 72% 29.97 in 10.0 mi SSE 6.9 mph - N/A   Clear
6:20 AM 60.8 °F 53.6 °F 77% 29.97 in 10.0 mi SE 6.9 mph - N/A   Clear
6:36 AM 60.8 °F 53.6 °F 77% 29.97 in 10.0 mi SE 5.8 mph - N/A   Clear
6:40 AM 60.8 °F 51.8 °F 72% 29.97 in 10.0 mi SE 9.2 mph - N/A   Clear
6:56 AM 60.8 °F 51.8 °F 72% 29.96 in 10.0 mi SE 9.2 mph - N/A   Clear
7:00 AM 60.8 °F 51.8 °F 72% 29.96 in 10.0 mi SE 9.2 mph - N/A   Clear
7:16 AM 60.8 °F 51.8 °F 72% 29.96 in 10.0 mi SSE 6.9 mph - N/A   Clear
7:20 AM 60.8 °F 51.8 °F 72% 29.96 in 10.0 mi SE 8.1 mph - N/A   Clear
7:36 AM 60.8 °F 51.8 °F 72% 29.96 in 10.0 mi SE 8.1 mph - N/A   Clear
7:40 AM 60.8 °F 51.8 °F 72% 29.96 in 10.0 mi SE 8.1 mph - N/A   Clear
7:56 AM 62.6 °F 53.6 °F 72% 29.95 in 10.0 mi SE 9.2 mph - N/A   Clear
8:00 AM 62.6 °F 51.8 °F 68% 29.95 in 10.0 mi SE 8.1 mph - N/A   Clear
8:16 AM 62.6 °F 53.6 °F 72% 29.95 in 10.0 mi SE 6.9 mph 17.3 mph N/A   Clear
8:20 AM 62.6 °F 53.6 °F 72% 29.95 in 10.0 mi SE 10.4 mph - N/A   Clear
8:36 AM 64.4 °F 53.6 °F 68% 29.94 in 10.0 mi SE 9.2 mph - N/A   Clear
8:40 AM 64.4 °F 53.6 °F 68% 29.94 in 10.0 mi SE 9.2 mph - N/A   Clear
8:56 AM 66.2 °F 55.4 °F 68% 29.94 in 10.0 mi SSE 12.7 mph 17.3 mph N/A   Clear
9:00 AM 66.2 °F 55.4 °F 68% 29.94 in 10.0 mi SSE 11.5 mph 17.3 mph N/A   Clear
9:16 AM 68.0 °F 55.4 °F 64% 29.93 in 10.0 mi South 12.7 mph - N/A   Clear
9:20 AM 68.0 °F 55.4 °F 64% 29.93 in 10.0 mi SSE 15.0 mph 19.6 mph N/A   Clear
9:36 AM 69.8 °F 57.2 °F 64% 29.92 in 10.0 mi SSE 12.7 mph 20.7 mph N/A   Clear
9:40 AM 69.8 °F 57.2 °F 64% 29.92 in 10.0 mi SSE 13.8 mph 19.6 mph N/A   Clear
9:56 AM 66.2 °F 55.4 °F 68% 29.91 in 10.0 mi SSE 13.8 mph 21.9 mph N/A   Clear
10:00 AM 66.2 °F 55.4 °F 68% 29.92 in 10.0 mi SSE 11.5 mph 20.7 mph N/A   Clear
10:16 AM 69.8 °F 55.4 °F 60% 29.91 in 10.0 mi SE 13.8 mph 17.3 mph N/A   Clear
10:20 AM 68.0 °F 55.4 °F 64% 29.91 in 10.0 mi SE 13.8 mph 19.6 mph N/A   Clear
10:36 AM 69.8 °F 55.4 °F 60% 29.90 in 10.0 mi SE 8.1 mph - N/A   Clear
10:40 AM 71.6 °F 55.4 °F 57% 29.90 in 10.0 mi SSE 16.1 mph 20.7 mph N/A   Clear
10:56 AM 71.6 °F 55.4 °F 57% 29.90 in 10.0 mi SSE 12.7 mph 21.9 mph N/A   Clear
11:00 AM 73.4 °F 55.4 °F 53% 29.91 in 10.0 mi SSE 12.7 mph 21.9 mph N/A   Clear
11:16 AM 73.4 °F 55.4 °F 53% 29.91 in 10.0 mi South 12.7 mph - N/A   Clear
11:20 AM 73.4 °F 55.4 °F 53% 29.91 in 10.0 mi SSE 13.8 mph 18.4 mph N/A   Clear
11:36 AM 73.4 °F 55.4 °F 53% 29.90 in 10.0 mi SSE 10.4 mph - N/A   Clear
11:40 AM 73.4 °F 55.4 °F 53% 29.90 in 10.0 mi SSE 11.5 mph 16.1 mph N/A   Clear
11:56 AM 75.2 °F 55.4 °F 50% 29.89 in 10.0 mi SE 16.1 mph 21.9 mph N/A   Clear
12:00 PM 75.2 °F 55.4 °F 50% 29.89 in 10.0 mi SSE 13.8 mph 21.9 mph N/A   Clear
12:20 PM 77.0 °F 57.2 °F 50% 29.88 in 10.0 mi South 13.8 mph 23.0 mph N/A   Clear
12:36 PM 75.2 °F 55.4 °F 50% 29.87 in 10.0 mi SSE 15.0 mph 24.2 mph N/A   Clear
12:40 PM 77.0 °F 57.2 °F 50% 29.87 in 10.0 mi SSE 13.8 mph 24.2 mph N/A   Clear
12:56 PM 78.8 °F 57.2 °F 47% 29.87 in 10.0 mi SSE 17.3 mph 23.0 mph N/A   Clear
1:00 PM 78.8 °F 57.2 °F 47% 29.86 in 10.0 mi SSE 16.1 mph 23.0 mph N/A   Clear
1:17 PM 77.0 °F 59.0 °F 54% 29.86 in 10.0 mi SSE 13.8 mph 23.0 mph N/A   Clear
1:36 PM 77.0 °F 60.8 °F 57% 29.85 in 10.0 mi SSE 16.1 mph 23.0 mph N/A   Clear
1:40 PM 77.0 °F 60.8 °F 57% 29.85 in 10.0 mi SSE 13.8 mph 20.7 mph N/A   Clear
1:56 PM 78.8 °F 62.6 °F 57% 29.85 in 10.0 mi SSE 12.7 mph 19.6 mph N/A   Clear
1:59 PM 78.8 °F 60.8 °F 54% 29.84 in 10.0 mi SSE 9.2 mph 18.4 mph N/A   Clear
2:16 PM 77.0 °F 60.8 °F 57% 29.85 in 10.0 mi SSE 9.2 mph 18.4 mph N/A   Clear
2:20 PM 75.2 °F 60.8 °F 61% 29.84 in 10.0 mi South 8.1 mph - N/A   Clear
2:36 PM 77.0 °F 62.6 °F 61% 29.84 in 10.0 mi South 9.2 mph - N/A   Clear
2:40 PM 77.0 °F 62.6 °F 61% 29.84 in 10.0 mi South 9.2 mph - N/A   Clear
2:56 PM 78.8 °F 62.6 °F 57% 29.84 in 10.0 mi South 11.5 mph - N/A   Clear
3:00 PM 78.8 °F 62.6 °F 57% 29.84 in 10.0 mi SSE 9.2 mph - N/A   Clear
3:16 PM 77.0 °F 62.6 °F 61% 29.83 in 10.0 mi SSE 13.8 mph 21.9 mph N/A   Clear
3:20 PM 77.0 °F 62.6 °F 61% 29.83 in 10.0 mi SSE 10.4 mph 21.9 mph N/A   Clear
3:35 PM 77.0 °F 62.6 °F 61% 29.82 in 10.0 mi SSE 12.7 mph - N/A   Clear
3:40 PM 77.0 °F 62.6 °F 61% 29.82 in 10.0 mi South 9.2 mph - N/A   Clear
3:56 PM 75.2 °F 62.6 °F 65% 29.82 in 10.0 mi SSE 8.1 mph - N/A   Clear
4:00 PM 75.2 °F 62.6 °F 65% 29.82 in 10.0 mi SSE 9.2 mph - N/A   Clear
4:16 PM 75.2 °F 62.6 °F 65% 29.82 in 10.0 mi SSE 10.4 mph - N/A   Clear
4:20 PM 75.2 °F 64.4 °F 69% 29.82 in 10.0 mi SSE 5.8 mph - N/A   Clear
4:36 PM 75.2 °F 64.4 °F 69% 29.80 in 10.0 mi SE 5.8 mph - N/A   Clear
4:40 PM 75.2 °F 64.4 °F 69% 29.79 in 10.0 mi ESE 5.8 mph - N/A   Clear
4:56 PM 77.0 °F 64.4 °F 65% 29.82 in 10.0 mi South 5.8 mph - N/A   Clear
5:00 PM 77.0 °F 64.4 °F 65% 29.82 in 10.0 mi South 6.9 mph - N/A   Clear
5:16 PM 78.8 °F 64.4 °F 61% 29.82 in 10.0 mi SSE 6.9 mph - N/A   Clear
5:20 PM 78.8 °F 64.4 °F 61% 29.82 in 10.0 mi SSE 8.1 mph - N/A   Clear
5:36 PM 77.0 °F 64.4 °F 65% 29.82 in 10.0 mi SSE 6.9 mph - N/A   Clear
5:40 PM 77.0 °F 64.4 °F 65% 29.82 in 10.0 mi SSE 6.9 mph - N/A   Clear
5:56 PM 78.8 °F 66.2 °F 65% 29.82 in 10.0 mi SSE 5.8 mph - N/A   Clear
6:00 PM 78.8 °F 66.2 °F 65% 29.81 in 10.0 mi SSE 6.9 mph - N/A   Clear
6:16 PM 78.8 °F 66.2 °F 65% 29.81 in 10.0 mi SSE 6.9 mph - N/A   Clear
6:20 PM 78.8 °F 66.2 °F 65% 29.81 in 10.0 mi SSE 5.8 mph - N/A   Clear
6:36 PM 78.8 °F 66.2 °F 65% 29.82 in 10.0 mi SSE 8.1 mph - N/A   Clear
6:40 PM 77.0 °F 64.4 °F 65% 29.81 in 10.0 mi SSE 8.1 mph - N/A   Clear
6:56 PM 77.0 °F 66.2 °F 69% 29.81 in 10.0 mi South 6.9 mph - N/A   Clear
7:00 PM 77.0 °F 64.4 °F 65% 29.81 in 10.0 mi South 6.9 mph - N/A   Clear
7:16 PM 78.8 °F 66.2 °F 65% 29.81 in 10.0 mi SSE 6.9 mph - N/A   Clear
7:20 PM 77.0 °F 66.2 °F 69% 29.81 in 10.0 mi SSE 8.1 mph - N/A   Clear
7:36 PM 77.0 °F 66.2 °F 69% 29.81 in 10.0 mi SSE 5.8 mph - N/A   Clear
7:40 PM 75.2 °F 66.2 °F 73% 29.81 in 10.0 mi SSE 6.9 mph - N/A   Clear
7:56 PM 75.2 °F 66.2 °F 73% 29.81 in 10.0 mi SSE 5.8 mph - N/A   Clear
8:00 PM 75.2 °F 66.2 °F 73% 29.81 in 10.0 mi SSE 5.8 mph - N/A   Clear
8:16 PM 73.4 °F 66.2 °F 78% 29.82 in 10.0 mi South 3.5 mph - N/A   Clear
8:20 PM 73.4 °F 66.2 °F 78% 29.82 in 10.0 mi South 3.5 mph - N/A   Clear
8:36 PM 73.4 °F 66.2 °F 78% 29.82 in 10.0 mi South 3.5 mph - N/A   Clear
8:40 PM 73.4 °F 66.2 °F 78% 29.82 in 10.0 mi South 4.6 mph - N/A   Clear
8:56 PM 71.6 °F 66.2 °F 83% 29.82 in 10.0 mi Calm Calm - N/A   Clear
9:00 PM 69.8 °F 66.2 °F 88% 29.82 in 10.0 mi Calm Calm - N/A   Clear
9:16 PM 68.0 °F 66.2 °F 94% 29.83 in 10.0 mi Calm Calm - N/A   Clear
9:20 PM 68.0 °F 66.2 °F 94% 29.83 in 10.0 mi Calm Calm - N/A   Clear
9:36 PM 66.2 °F 64.4 °F 94% 29.83 in 10.0 mi Calm Calm - N/A   Clear
9:40 PM 66.2 °F 64.4 °F 94% 29.83 in 7.0 mi Calm Calm - N/A   Clear
9:56 PM 66.2 °F 64.4 °F 94% 29.83 in 7.0 mi Calm Calm - N/A   Clear
10:00 PM 66.2 °F 64.4 °F 94% 29.83 in 7.0 mi Calm Calm - N/A   Clear
10:16 PM 66.2 °F 64.4 °F 94% 29.84 in 10.0 mi Calm Calm - N/A   Clear
10:20 PM 66.2 °F 64.4 °F 94% 29.84 in 10.0 mi Calm Calm - N/A   Clear
10:36 PM 66.2 °F 64.4 °F 94% 29.84 in 10.0 mi Calm Calm - N/A   Clear
10:56 PM 64.4 °F 64.4 °F 100% 29.85 in 7.0 mi Calm Calm - N/A   Clear
11:40 PM 66.2 °F 64.4 °F 94% 29.85 in 7.0 mi Calm Calm - N/A   Clear
11:56 PM 64.4 °F 64.4 °F 100% 29.85 in 4.0 mi Calm Calm - N/A   Clear